Torna al catalogo

STARLINK-11228

AttivoComunicazioniVLEO
NORAD 60398·PAYLOAD·🇺🇸 United States

Lanciato Aug 10, 2024 da Cape Canaveral Space Force Station

Loading…

Prossimi Passaggi (prossime 24 ore)

TLE

AggiornatoSource: CelesTrak SupGP

Epoca: Sep 15, 2026, 03:15 UTC

1 60398C 24141A   26258.13590278 -.00070696  00000+0 -58209-3 0  2580
2 60398  53.1571 232.3749 0001204  89.3029  45.8227 15.69754987    18

Traccia STARLINK-11228 in tempo reale con AllMySat

Download on the App Store